This demonstration page uses our WeatherBlox Daily Observations layout. Learn more.

Left ArrowRight Arrow

Hourly Observations for February 22, 2022

Temp ( °F °C ) Dew Point ( °F °C ) Humidity (%) Winds ( mph kmh ) Pressure ( in mb ) Visibility ( mi km ) Precip ( " mm )
12:15 am 00:15 Cloudy with Haze 4 -15.7 -3 -19.6 72 72 N 26 43 30.23 1024 3 5 0.00 0.00
12:35 am 00:35 Windy with Snow Likely 3 -15.9 -3 -19.7 73 73 N 24 39 30.23 1024 4 6 0.00 0.00
12:55 am 00:55 Windy with Snow Likely 3 -16 -3 -19.7 73 73 N 24 39 30.24 1024 3 4 0.00 0.00
1:15 am 01:15 Windy with Snow Likely 3 -16.3 -4 -20 73 73 N 24 39 30.24 1024 3 4 0.00 0.00
1:35 am 01:35 Windy with Snow Likely 2 -16.7 -5 -20.5 73 73 N 23 37 30.26 1025 3 4 0.00 0.00
1:55 am 01:55 Windy with Snow Likely 1 -17 -6 -21 71 71 N 25 41 30.27 1025 4 6 0.00 0.00
2:15 am 02:15 Windy with Snow Likely 1 -17.1 -6 -21.1 71 71 NNW 26 43 30.28 1025 4 6 0.00 0.00
2:35 am 02:35 Windy with Snow Likely 1 -17.2 -6 -21.3 71 71 NNW 21 33 30.29 1026 7 11 0.00 0.00
2:55 am 02:55 Windy with Snow Likely 1 -17.5 -7 -21.5 71 71 N 25 41 30.29 1026 4 6 0.00 0.00
3:15 am 03:15 Windy with Snow Likely 1 -17.3 -6 -21.2 72 72 NNW 22 35 30.29 1026 3 5 0.00 0.00
3:35 am 03:35 Cloudy with Light Snow 1 -17.5 -7 -21.4 72 72 NNW 16 26 30.30 1026 3 5 0.00 0.00
3:55 am 03:55 Windy with Snow Likely 1 -17.5 -7 -21.4 72 72 NNW 22 35 30.31 1027 5 8 0.00 0.00
4:15 am 04:15 Windy with Snow Likely 1 -17.5 -7 -21.7 70 70 N 22 35 30.30 1026 10 16 0.00 0.00
4:35 am 04:35 Windy with Snow Likely 1 -17.5 -7 -21.6 71 71 N 24 39 30.31 1027 7 11 0.00 0.00
4:55 am 04:55 Windy with Snow Likely 0 -17.7 -7 -21.6 72 72 N 28 44 30.33 1027 7 11 0.00 0.00
5:15 am 05:15 Windy with Snow Likely 0 -17.8 -7 -21.5 73 73 N 22 35 30.34 1027 5 8 0.00 0.00
5:35 am 05:35 Windy with Snow Likely 0 -17.7 -6 -21.2 74 74 N 20 31 30.35 1028 5 8 0.00 0.00
5:55 am 05:55 Windy with Snow Likely 0 -17.8 -6 -21.3 74 74 N 24 39 30.36 1028 5 8 0.00 0.00
6:15 am 06:15 Windy with Snow Likely 0 -18 -7 -21.5 74 74 N 24 39 30.36 1028 4 6 0.00 0.00
6:35 am 06:35 Windy with Snow Likely 0 -18 -7 -21.5 74 74 NNW 21 33 30.37 1028 4 6 0.00 0.00
6:55 am 06:55 Windy with Snow Likely 0 -18 -7 -21.8 72 72 NNW 20 31 30.39 1029 5 8 0.00 0.00
7:15 am 07:15 Windy with Snow Likely -1 -18.1 -8 -22 72 72 NNW 20 31 30.39 1029 7 11 0.00 0.00
7:35 am 07:35 Windy with Snow Likely -1 -18.1 -8 -22.3 70 70 NNW 21 33 30.42 1030 7 11 0.00 0.00
7:55 am 07:55 Windy with Snow Likely -1 -18.1 -9 -22.5 69 69 NNW 21 33 30.45 1031 4 6 0.00 0.00
8:15 am 08:15 Windy with Snow Likely -1 -18.2 -9 -22.6 69 69 NNW 21 33 30.45 1031 5 8 0.00 0.00
8:35 am 08:35 Windy with Snow Likely -1 -18.1 -9 -22.5 69 69 NNW 20 31 30.46 1032 4 6 0.00 0.00
8:55 am 08:55 Windy with Snow Likely -1 -18.1 -9 -22.5 69 69 NNW 26 43 30.46 1032 4 6 0.00 0.00
9:15 am 09:15 Windy with Snow Likely 0 -18 -9 -22.6 67 67 NNW 25 41 30.47 1032 4 6 0.00 0.00
9:35 am 09:35 Windy with Snow Likely 0 -17.8 -9 -22.5 67 67 NNW 21 33 30.50 1033 7 11 0.00 0.00
9:55 am 09:55 Cloudy with Light Snow 0 -17.7 -9 -22.5 66 66 NNW 17 28 30.50 1033 10 16 0.00 0.00
10:15 am 10:15 Cloudy 1 -17 -8 -22 65 65 NNW 22 35 30.51 1033 10 16 0.00 0.00
10:35 am 10:35 Cloudy 1 -17 -8 -22.1 65 65 NNW 22 35 30.49 1033 10 16 0.00 0.00
10:55 am 10:55 Cloudy 3 -16 -6 -21 66 66 NNW 23 37 30.46 1031 10 16 0.00 0.00
11:15 am 11:15 Cloudy 3 -15.9 -6 -21.2 64 64 N 21 33 30.47 1032 10 16 0.00 0.00
11:35 am 11:35 Cloudy 5 -14.8 -4 -20.2 64 64 N 24 39 30.48 1032 10 16 0.00 0.00
11:55 am 11:55 Cloudy 7 -14.1 -3 -19.6 63 63 NNW 23 37 30.47 1032 10 16 0.00 0.00
12:15 pm 12:15 Cloudy 7 -14 -4 -19.9 61 61 N 18 30 30.48 1032 10 16 0.00 0.00
12:35 pm 12:35 Cloudy 7 -13.7 -3 -19.7 61 61 N 20 31 30.46 1032 10 16 0.00 0.00
12:55 pm 12:55 Cloudy 9 -12.9 -3 -19.4 59 59 N 20 31 30.47 1032 10 16 0.00 0.00
1:15 pm 13:15 Cloudy 9 -12.6 -2 -19 59 59 NNW 22 35 30.47 1032 10 16 0.00 0.00
1:35 pm 13:35 Cloudy 11 -11.9 -2 -18.9 56 56 NNW 21 33 30.47 1032 10 16 0.00 0.00
1:55 pm 13:55 Mostly Cloudy 10 -12 -3 -19.3 55 55 NNW 20 31 30.47 1032 10 16 0.00 0.00
2:15 pm 14:15 Partly Cloudy 11 -11.4 -2 -19.1 53 53 N 18 30 30.48 1032 10 16 0.00 0.00
2:35 pm 14:35 Mostly Cloudy 12 -11.3 -3 -19.2 52 52 NNW 21 33 30.48 1032 10 16 0.00 0.00
2:55 pm 14:55 Partly Cloudy 12 -11 -3 -19.3 51 51 NNW 18 30 30.49 1032 10 16 0.00 0.00
3:15 pm 15:15 Partly Cloudy 13 -10.6 -3 -19.4 49 49 N 20 31 30.49 1033 10 16 0.00 0.00
3:35 pm 15:35 Partly Cloudy 13 -10.6 -3 -19.5 48 48 N 18 30 30.49 1033 10 16 0.00 0.00
3:55 pm 15:55 Partly Cloudy 13 -10.8 -3 -19.6 49 49 NNW 21 33 30.51 1033 10 16 0.00 0.00
4:15 pm 16:15 Mostly Cloudy 12 -11 -4 -19.9 48 48 NNW 21 33 30.53 1034 10 16 0.00 0.00
4:35 pm 16:35 Cloudy 12 -11.1 -4 -19.8 49 49 N 21 33 30.54 1034 10 16 0.00 0.00
4:55 pm 16:55 Cloudy 12 -11.3 -4 -20.1 49 49 N 23 37 30.55 1035 10 16 0.00 0.00
5:15 pm 17:15 Cloudy 11 -11.8 -4 -20.2 50 50 N 21 33 30.56 1035 10 16 0.00 0.00
5:35 pm 17:35 Mostly Cloudy 10 -12 -4 -20.2 51 51 NNW 17 28 30.58 1035 10 16 0.00 0.00
5:55 pm 17:55 Sunny 9 -12.8 -5 -20.6 52 52 N 18 30 30.60 1036 10 16 0.00 0.00
6:15 pm 18:15 Partly Cloudy 8 -13.1 -5 -20.6 54 54 N 20 31 30.62 1037 10 16 0.00 0.00
6:35 pm 18:35 Mostly Cloudy 8 -13.2 -5 -20.7 54 54 N 21 33 30.63 1037 10 16 0.00 0.00
6:55 pm 18:55 Mostly Cloudy 8 -13.6 -6 -21.1 54 54 N 16 26 30.66 1038 10 16 0.00 0.00
7:15 pm 19:15 Mostly Cloudy 7 -13.8 -6 -21.3 53 53 N 20 31 30.68 1039 10 16 0.00 0.00
7:35 pm 19:35 Cloudy 7 -14 -6 -21.3 54 54 N 20 31 30.70 1040 10 16 0.00 0.00
7:55 pm 19:55 Cloudy 6 -14.5 -7 -21.6 55 55 N 18 30 30.72 1040 10 16 0.00 0.00
8:15 pm 20:15 Cloudy 6 -14.7 -7 -21.6 56 56 N 17 28 30.74 1041 10 16 0.00 0.00
8:35 pm 20:35 Mostly Cloudy 4 -15.3 -8 -22.2 56 56 N 21 33 30.74 1041 10 16 0.00 0.00
8:55 pm 20:55 Partly Cloudy 4 -15.6 -8 -22.2 57 57 N 17 28 30.75 1041 10 16 0.00 0.00
9:15 pm 21:15 Clear 3 -16.1 -8 -22.3 59 59 N 15 24 30.76 1042 10 16 0.00 0.00
9:35 pm 21:35 Clear 2 -16.5 -9 -22.7 59 59 N 17 28 30.78 1042 10 16 0.00 0.00
9:55 pm 21:55 Clear 2 -16.8 -9 -22.9 59 59 N 18 30 30.78 1042 10 16 0.00 0.00
10:15 pm 22:15 Clear 1 -17 -9 -22.7 62 62 N 15 24 30.78 1042 10 16 0.00 0.00
10:35 pm 22:35 Clear 1 -17.2 -9 -23 61 61 N 15 24 30.80 1043 10 16 0.00 0.00
10:55 pm 22:55 Clear 1 -17.5 -10 -23.1 62 62 N 14 22 30.79 1043 10 16 0.00 0.00
11:15 pm 23:15 Clear 0 -17.6 -10 -23.1 62 62 N 15 24 30.81 1043 10 16 0.00 0.00
11:35 pm 23:35 Clear 0 -17.8 -10 -23.1 63 63 N 14 22 30.81 1043 10 16 0.00 0.00
11:55 pm 23:55 Partly Cloudy 0 -18 -10 -23.2 64 64 N 14 22 30.82 1044 10 16 0.00 0.00

Powered by AerisWeather